This demonstration page uses our WeatherBlox Daily Observations layout. Learn more.

Hourly Observations for December 10, 2016

Temp ( °F °C ) Dew Point ( °F °C ) Humidity (%) Winds ( mph kmh ) Pressure ( in mb ) Visibility ( mi km ) Precip ( " mm )
12:15 am 00:15 Clear 13 -10.3 10 -12.4 85 85 ESE 5 7 30.56 1035 10 16.0934 0 0
12:35 am 00:35 Clear 15 -9.5 11 -11.5 86 86 ESE 7 11 30.53 1034 10 16.0934 0 0
12:55 am 00:55 Partly Cloudy 16 -9 12 -11.1 85 85 ESE 8 13 30.5 1033 10 16.0934 0 0
1:15 am 01:15 Mostly Cloudy 16 -8.7 12 -11 84 84 SE 9 15 30.48 1032 10 16.0934 0 0
1:35 am 01:35 Cloudy 18 -8 13 -10.7 81 81 SE 9 15 30.48 1032 10 16.0934 0 0
1:55 am 01:55 Mostly Cloudy 19 -7.5 13 -10.3 81 81 SE 8 13 30.48 1032 10 16.0934 0 0
2:15 am 02:15 Partly Cloudy 19 -7.2 13 -10.3 79 79 SE 10 17 30.48 1032 10 16.0934 0 0
2:35 am 02:35 Mostly Cloudy 19 -7.1 14 -10.1 79 79 SE 9 15 30.48 1032 10 16.0934 0 0
2:55 am 02:55 Partly Cloudy 19 -7 14 -10 79 79 SE 7 11 30.48 1032 10 16.0934 0 0
3:15 am 03:15 Mostly Cloudy 20 -6.8 14 -9.8 79 79 SE 9 15 30.42 1030 10 16.0934 0 0
3:35 am 03:35 Partly Cloudy 20 -6.6 14 -10 77 77 SE 9 15 30.42 1030 10 16.0934 0 0
3:55 am 03:55 Clear 20 -6.6 14 -10 77 77 SE 9 15 30.42 1030 10 16.0934 0 0
4:15 am 04:15 Clear 20 -6.5 14 -10 76 76 SE 7 11 30.42 1030 10 16.0934 0 0
4:35 am 04:35 Clear 20 -6.6 14 -10 77 77 ESE 10 17 30.39 1029 10 16.0934 0 0
4:55 am 04:55 Clear 20 -6.6 14 -9.8 78 78 ESE 8 13 30.36 1028 10 16.0934 0 0
5:15 am 05:15 Clear 20 -6.7 15 -9.7 79 79 ESE 8 13 30.36 1028 10 16.0934 0 0
5:35 am 05:35 Clear 20 -6.6 15 -9.6 79 79 SE 8 13 30.36 1028 10 16.0934 0 0
5:55 am 05:55 Clear 20 -6.6 15 -9.6 79 79 SE 8 13 30.36 1028 10 16.0934 0 0
6:15 am 06:15 Clear 20 -6.6 15 -9.5 80 80 SE 9 15 30.36 1028 10 16.0934 0 0
6:35 am 06:35 Clear 20 -6.7 15 -9.6 80 80 SE 10 17 30.36 1028 10 16.0934 0 0
6:55 am 06:55 Clear 19 -7 14 -10 79 79 SE 12 19 30.36 1028 10 16.0934 0 0
7:15 am 07:15 Partly Cloudy 19 -7.2 14 -10 81 81 SE 8 13 30.36 1028 10 16.0934 0 0
7:35 am 07:35 Mostly Cloudy 18 -7.6 14 -10.1 82 82 SE 9 15 30.36 1028 10 16.0934 0 0
7:55 am 07:55 Partly Cloudy 18 -7.8 13 -10.3 82 82 SE 9 15 30.33 1027 10 16.0934 0 0
8:15 am 08:15 Mostly Cloudy 19 -7.5 14 -10 83 83 SSE 13 20 30.3 1026 10 16.0934 0 0
8:35 am 08:35 Mostly Cloudy 19 -7.1 14 -9.8 81 81 SSE 9 15 30.33 1027 10 16.0934 0 0
8:55 am 08:55 Mostly Cloudy 20 -6.7 15 -9.6 80 80 SSE 16 26 30.3 1026 10 16.0934 0 0
9:15 am 09:15 Partly Cloudy 20 -6.5 15 -9.5 80 80 SSE 16 26 30.3 1026 10 16.0934 0 0
9:35 am 09:35 Mostly Cloudy 21 -6 15 -9.2 78 78 SSE 16 26 30.3 1026 10 16.0934 0 0
9:55 am 09:55 Cloudy 23 -5.1 16 -8.8 76 76 SSE 15 24 30.27 1025 10 16.0934 0 0
10:15 am 10:15 Cloudy 23 -4.8 16 -8.7 74 74 SSE 17 28 30.27 1025 10 16.0934 0 0
10:35 am 10:35 Partly Cloudy 25 -3.7 17 -8.6 69 69 SSE 20 31 30.27 1025 10 16.0934 0 0
10:55 am 10:55 Sunny 26 -3.6 17 -8.4 70 70 SSE 20 31 30.24 1024 10 16.0934 0 0
11:15 am 11:15 Partly Cloudy 27 -3 17 -8.1 68 68 SSE 15 24 30.24 1024 10 16.0934 0 0
11:35 am 11:35 Partly Cloudy 27 -2.6 18 -7.7 68 68 S 17 28 30.18 1022 10 16.0934 0 0
11:55 am 11:55 Partly Cloudy 28 -2.1 19 -7.5 67 67 S 13 20 30.18 1022 10 16.0934 0 0
12:15 pm 12:15 Partly Cloudy 29 -1.9 19 -7.4 66 66 SSE 17 28 30.15 1021 10 16.0934 0 0
12:35 pm 12:35 Sunny 28 -2 19 -7.4 67 67 S 14 22 30.15 1021 10 16.0934 0 0
12:55 pm 12:55 Partly Cloudy 29 -1.8 19 -7.2 67 67 S 15 24 30.12 1020 10 16.0934 0 0
1:15 pm 13:15 Cloudy 29 -1.8 19 -7.1 67 67 S 14 22 30.12 1020 10 16.0934 0 0
1:35 pm 13:35 Cloudy 29 -1.5 19 -7 67 67 S 16 26 30.09 1019 10 16.0934 0 0
1:55 pm 13:55 Partly Cloudy 31 -0.6 20 -6.8 63 63 SSE 20 31 30.03 1017 10 16.0934 0 0
2:15 pm 14:15 Sunny 31 -0.3 20 -6.5 63 63 SSE 17 28 30.03 1017 10 16.0934 0 0
2:35 pm 14:35 Partly Cloudy 31 -0.5 20 -6.6 64 64 S 15 24 30 1016 10 16.0934 0 0
2:55 pm 14:55 Sunny 32 0 20 -6.4 62 62 S 16 26 30 1016 10 16.0934 0 0
3:15 pm 15:15 Sunny 33 0.3 21 -6.1 63 63 SSE 18 30 30 1016 10 16.0934 0 0
3:35 pm 15:35 Sunny 33 0.6 22 -5.7 63 63 SSE 16 26 30 1016 10 16.0934 0 0
3:55 pm 15:55 Sunny 34 1 22 -5.6 62 62 SSE 14 22 29.97 1015 10 16.0934 0 0
4:15 pm 16:15 Sunny 33 0.8 23 -5.2 65 65 SSE 14 22 29.97 1015 10 16.0934 0 0
4:35 pm 16:35 Sunny 33 0.7 23 -5 66 66 SSE 12 19 29.97 1015 10 16.0934 0 0
4:55 pm 16:55 Sunny 33 0.7 23 -4.8 67 67 S 14 22 29.94 1014 10 16.0934 0 0
5:15 pm 17:15 Clear 33 0.6 23 -4.9 67 67 S 12 19 29.94 1014 10 16.0934 0 0
5:35 pm 17:35 Clear 33 0.4 23 -4.9 68 68 SSE 10 17 29.94 1014 10 16.0934 0 0
5:55 pm 17:55 Clear 32 0 23 -4.9 70 70 SSE 8 13 29.94 1014 10 16.0934 0 0
6:15 pm 18:15 Clear 31 -0.5 23 -5 72 72 SSE 8 13 29.91 1013 10 16.0934 0 0
6:35 pm 18:35 Clear 31 -0.6 23 -4.8 74 74 SSE 10 17 29.91 1013 10 16.0934 0 0
6:55 pm 18:55 Clear 31 -0.5 24 -4.7 74 74 SSE 8 13 29.88 1012 10 16.0934 0 0
7:15 pm 19:15 Clear 31 -0.3 24 -4.6 73 73 S 7 11 29.91 1013 10 16.0934 0 0
7:35 pm 19:35 Clear 31 -0.6 24 -4.6 75 75 SSE 5 7 29.91 1013 10 16.0934 0 0
7:55 pm 19:55 Clear 31 -0.5 24 -4.5 75 75 S 6 9 29.91 1013 10 16.0934 0 0
8:15 pm 20:15 Clear 31 -0.6 24 -4.5 75 75 SSE 7 11 29.88 1012 10 16.0934 0 0
8:35 pm 20:35 Clear 30 -1.2 24 -4.7 77 77 SSE 6 9 29.88 1012 10 16.0934 0 0
8:55 pm 20:55 Clear 30 -1.2 24 -4.5 79 79 SSE 9 15 29.88 1012 10 16.0934 0 0
9:15 pm 21:15 Clear 30 -0.9 24 -4.5 77 77 SSE 10 17 29.88 1012 10 16.0934 0 0
9:35 pm 21:35 Clear 30 -1 24 -4.6 77 77 S 3 6 29.88 1012 10 16.0934 0 0
9:55 pm 21:55 Clear 30 -1 24 -4.6 77 77 S 10 17 29.85 1011 10 16.0934 0 0
10:15 pm 22:15 Clear 31 -0.6 24 -4.6 75 75 SSE 6 9 29.85 1011 10 16.0934 0 0
10:35 pm 22:35 Clear 31 -0.8 24 -4.5 76 76 SSE 6 9 29.85 1011 10 16.0934 0 0
10:55 pm 22:55 Clear 30 -1 24 -4.6 77 77 SE 3 6 29.85 1011 10 16.0934 0 0
11:15 pm 23:15 Clear 29 -1.4 24 -4.6 79 79 SSE 7 11 29.83 1010 10 16.0934 0 0
11:35 pm 23:35 Clear 29 -1.5 24 -4.6 80 80 SSE 6 9 29.83 1010 10 16.0934 0 0
11:55 pm 23:55 Clear 29 -1.8 24 -4.7 81 81 SSE 8 13 29.83 1010 10 16.0934 0 0

Powered by AerisWeather